Location: Krishnamma Banjar
(17.2175°N, 80.5166°E)
Time: 09:19:02
(UTC+00:00)

Cosmos 1939 Rocket - Pass Details

Date: 03 August 2024
Orbit: 511 x 552 km, 97.5° (Epoch: 14 September)

Event Time Altitude Azimuth Distance (km) Brightness Sun altitude
Rises 23:40:46 0° 349° (N) 2,630 6.4 -9.3°
Reaches altitude 10° 23:43:14 10° 333° (NNW) 1,749 5.3 -8.7°
Maximum altitude 23:46:03 20° 284° (WNW) 1,241 4.2 -8.1°
Drops below altitude 10° 23:48:53 10° 236° (SW) 1,764 4.8 -7.5°
Enters shadow 23:49:23 - 231° (SW) 1,927 5.0 -7.4°
